Location: Tom's Yard
(40.4840°N, 78.0100°W)
Time: 10:34:17
(UTC-05:00)

N. Korean satellite - Visible Passes

Search period start: 10 December 2018 00:00
Search period end: 20 December 2018 00:00
Orbit: 456 x 511 km, 97.2° (Epoch: 09 December)

Date Brightness Start Highest point End Pass type
(mag) Time Alt. Az. Time Alt. Az. Time Alt. Az.
10 Dec 8.9 05:54:50 10° NE 05:57:54 27° E 06:00:59 10° SSE visible
10 Dec 7.7 18:03:13 10° S 18:06:31 45° W 18:09:50 10° NNW visible
11 Dec 9.9 05:31:20 10° ENE 05:33:12 14° E 05:35:04 10° SE visible
11 Dec 6.3 17:38:32 10° SSE 17:41:57 78° ENE 17:45:24 10° N visible
12 Dec 6.5 06:38:42 10° N 06:42:15 73° WNW 06:45:51 10° SSW visible
12 Dec 7.1 17:14:20 10° SE 17:17:27 34° ENE 17:20:36 10° N visible
12 Dec 10.0 18:49:43 10° WSW 18:51:03 12° W 18:52:24 10° WNW visible
13 Dec 7.6 06:14:13 10° NNE 06:17:42 50° E 06:21:13 10° S visible
13 Dec 9.0 18:23:29 10° SSW 18:26:19 24° W 18:29:11 10° NW visible
14 Dec 9.1 05:50:05 10° NE 05:53:04 24° E 05:56:02 10° SSE visible
14 Dec 7.3 17:58:20 10° S 18:01:41 52° W 18:05:03 10° NNW visible
15 Dec 10.0 05:26:50 10° ENE 05:28:20 12° E 05:29:51 10° ESE visible
15 Dec 6.4 17:33:43 10° SSE 17:37:06 67° ENE 17:40:31 10° N visible
16 Dec 6.5 06:33:49 10° N 06:37:26 84° WNW 06:41:05 10° SSW visible
16 Dec 9.8 18:44:22 10° SW 18:46:09 14° W 18:47:57 10° WNW visible
17 Dec 7.9 06:09:23 10° NNE 06:12:51 43° E 06:16:21 10° S visible
17 Dec 8.7 18:18:27 10° SSW 18:21:25 27° W 18:24:26 10° NW visible
18 Dec 9.3 05:45:21 10° NE 05:48:11 21° E 05:51:03 10° SSE visible
18 Dec 7.0 17:53:23 10° S 17:56:46 61° W 18:00:12 10° NNW visible
19 Dec 10.2 05:22:29 10° ENE 05:23:26 11° E 05:24:24 10° ESE visible
19 Dec 6.9 06:53:37 10° N 06:57:05 44° WNW 07:00:35 10° SSW visible
19 Dec 6.5 17:28:51 10° SSE 17:32:12 57° ENE 17:35:36 10° N visible
